CAPE
0 0 0 0 0 0 0 0 0 0 0 0 0 0 0 0 0 0 0 0 0 0 0 0 0 0 0 0 0 0 0 0 0 0 0 0 0 0 31 20 244 378 369 948 777
0 0 0 0 0 0 0 0 0 0 0 0 0 0 0 0 0 0 0 0 0 0 0 0 0 0 0 0 0 0 0 0 0 0 0 0 0 0 1 0 0 7 318 596 847
0 0 0 0 0 0 0 0 0 0 0 0 0 0 0 0 0 0 0 0 0 0 0 0 0 0 0 0 0 0 0 0 0 0 0 0 0 0 0 0 0 0 1 540 875
0 0 0 0 0 0 0 0 0 0 0 0 0 0 0 0 0 0 0 0 0 0 0 0 0 0 0 0 0 0 0 0 0 0 0 0 0 0 0 0 0 0 0 207 516
0 0 0 0 0 0 0 0 0 0 0 0 0 0 0 0 0 0 0 0 0 0 0 0 0 0 0 0 0 0 0 0 0 0 0 0 0 0 0 0 0 0 0 0 298
0 0 0 0 0 0 0 0 0 0 0 0 0 0 0 0 0 0 0 0 0 0 0 0 0 0 0 0 0 0 0 0 0 0 0 0 0 0 0 0 0 0 0 0 195
0 0 0 0 0 0 0 0 0 0 0 0 0 0 0 0 0 0 0 0 0 0 0 0 0 0 0 0 0 0 0 0 0 0 0 0 0 0 0 0 20 334 360 336 870
0 0 0 0 0 0 0 0 0 0 0 0 0 0 0 0 0 0 0 0 0 0 0 0 0 0 0 0 0 0 0 0 0 0 0 0 0 0 65 97 208 440 500 553 563
0 0 0 0 0 0 0 0 0 0 0 0 0 0 0 0 0 0 0 0 0 0 0 0 0 0 0 0 0 0 0 0 0 0 0 0 0 0 21 90 190 307 369 488 735
0 0 0 0 0 0 0 0 0 0 0 0 0 0 0 0 0 0 0 0 0 0 0 0 0 0 0 0 0 0 0 0 0 0 0 0 0 0 0 1 3 56 121 214 280
0 0 0 0 0 0 0 0 0 0 0 0 0 0 0 0 0 0 0 0 0 0 0 0 0 0 0 0 0 0 0 0 0 0 0 0 0 0 0 0 0 0 0 7 3
0 0 0 0 0 0 0 0 0 0 0 0 0 0 0 0 0 0 0 0 0 0 0 0 0 0 0 0 0 0 0 0 0 0 0 0 0 0 0 0 0 0 0 0 0
0 0 0 0 0 0 0 0 0 0 0 0 0 0 0 0 0 0 0 0 0 0 0 1 0 0 0 0 0 0 0 0 0 0 0 0 0 12 0 0 0 0 0 0 0
0 0 0 0 0 0 0 0 0 0 0 0 0 0 0 0 0 0 0 0 0 0 0 0 0 0 0 0 0 0 0 0 0 0 0 0 1 48 0 0 0 0 0 0 0
0 0 0 0 0 0 0 0 0 0 18 0 0 0 0 0 0 0 0 0 0 0 0 0 0 0 0 0 0 0 0 0 0 0 0 0 0 67 0 0 0 0 0 0 0
0 0 0 0 0 0 0 0 0 11 29 0 0 0 0 0 0 0 0 0 0 0 0 0 0 0 0 0 0 0 0 0 0 0 0 0 0 19 0 0 0 0 0 0 0
0 0 0 0 0 0 0 0 28 25 0 0 0 0 0 0 0 0 0 0 0 0 0 0 0 0 0 0 0 0 0 0 0 0 2 0 0 0 0 0 0 0 0 0 0
0 0 0 0 0 0 0 4 9 1 0 0 0 0 0 0 0 0 0 0 0 0 0 0 0 0 0 0 0 0 0 0 0 0 0 0 0 0 0 0 0 0 0 0 0
0 0 0 0 0 0 0 0 5 9 0 0 0 0 0 0 0 0 0 0 0 0 0 0 0 0 0 0 0 0 0 0 0 0 0 0 0 0 0 0 0 0 0 0 0
0 0 0 0 0 0 0 0 0 0 0 0 0 0 0 0 0 0 0 0 0 0 0 0 0 0 0 0 0 0 0 0 0 0 0 0 0 0 0 0 0 0 0 0 0
0 0 0 0 0 0 0 0 0 0 0 0 0 0 0 0 0 0 0 0 0 0 0 0 0 0 0 0 0 0 0 0 0 0 0 0 0 0 0 0 0 0 0 0 0
0 0 0 0 0 0 0 0 0 0 0 0 0 0 0 0 0 0 0 0 0 0 0 0 0 0 0 0 0 0 0 0 0 0 0 0 0 0 0 0 0 0 0 0 0
0 0 0 0 0 1 0 0 0 0 0 0 0 0 0 0 0 0 0 0 0 0 0 0 0 0 0 0 0 0 0 0 0 0 0 0 0 0 0 0 0 0 0 0 0
0 0 0 0 0 0 0 0 0 0 0 0 0 0 0 0 0 0 0 0 0 0 0 0 0 0 0 0 0 0 0 0 0 0 0 0 0 0 0 0 0 0 0 0 0
0 0 0 0 0 0 0 0 0 0 0 0 0 0 0 0 0 0 0 0 0 0 0 0 0 0 0 0 0 0 0 0 0 0 0 0 0 0 0 0 0 0 0 0 0
0 0 0 0 0 0 0 0 0 0 0 0 0 0 0 0 0 0 0 0 0 0 0 0 0 0 0 0 0 0 0 0 0 0 0 0 0 0 0 0 0 0 0 0 0
0 0 0 0 0 0 0 0 0 0 0 0 0 0 0 0 0 0 0 0 0 0 0 0 0 2 0 0 0 0 0 0 0 0 0 0 0 13 0 0 0 0 0 0 0
CIN
-0 -0 -0 -0 -0 -0 -0 -0 -0 -0 -0 -0 -0 -0 -0 -0 -0 -0 -0 -0 -0 -0 -0 -0 -0 -0 -0 -0 -0 -0 -0 -0 -0 -0 -0 -0 -0 -0 -90 -104 -82 -85 -79 -121 -115
-0 -0 -0 -0 -0 -0 -0 -0 -0 -0 -0 -0 -0 -0 -0 -0 -0 -0 -0 -0 -0 -0 -0 -0 -0 -0 -0 -0 -0 -0 -0 -0 -0 -0 -0 -0 -0 -0 -76 -0 -0 -179 -106 -245 -162
-0 -0 -0 -0 -0 -0 -0 -0 -0 -0 -0 -0 -0 -0 -0 -0 -0 -0 -0 -0 -0 -0 -0 -0 -0 -0 -0 -0 -0 -0 -0 -0 -0 -0 -0 -0 -0 -0 -0 -0 -0 -0 -7 -192 -199
-0 -0 -0 -0 -0 -0 -0 -0 -0 -0 -0 -0 -0 -0 -0 -0 -0 -0 -0 -0 -0 -0 -0 -0 -0 -0 -0 -0 -0 -0 -0 -0 -0 -0 -0 -0 -0 -0 -0 -0 -0 -0 -0 -161 -212
-0 -0 -0 -0 -0 -0 -0 -0 -0 -0 -0 -0 -0 -0 -0 -0 -0 -0 -0 -0 -0 -0 -0 -0 -0 -0 -0 -0 -0 -0 -0 -0 -0 -0 -0 -0 -0 -0 -0 -0 -0 -0 -0 -0 -204
-0 -0 -0 -0 -0 -0 -0 -0 -0 -0 -0 -0 -0 -0 -0 -0 -0 -0 -0 -0 -0 -0 -0 -0 -0 -0 -0 -0 -0 -0 -0 -0 -0 -0 -0 -0 -0 -0 -0 -0 -0 -0 -0 -0 -191
-0 -0 -0 -0 -0 -0 -0 -0 -0 -0 -0 -0 -0 -0 -0 -0 -0 -0 -0 -0 -0 -0 -0 -0 -0 -0 -0 -0 -0 -0 -0 -0 -0 -0 -0 -0 -0 -0 -0 -0 -217 -179 -177 -183 -120
-0 -0 -0 -0 -0 -0 -0 -0 -0 -0 -0 -0 -0 -0 -0 -0 -0 -0 -0 -0 -0 -0 -0 -0 -0 -0 -0 -0 -0 -0 -0 -0 -0 -0 -0 -0 -0 -0 -223 -212 -239 -187 -146 -151 -176
-0 -0 -0 -0 -0 -0 -0 -0 -0 -0 -0 -0 -0 -0 -0 -0 -0 -0 -0 -0 -0 -0 -0 -0 -0 -0 -0 -0 -0 -0 -0 -0 -0 -0 -0 -0 -0 -0 -158 -210 -226 -208 -176 -123 -88
-0 -0 -0 -0 -0 -0 -0 -0 -0 -0 -0 -0 -0 -0 -0 -0 -0 -0 -0 -0 -0 -0 -0 -0 -0 -0 -0 -0 -0 -0 -0 -0 -0 -0 -0 -0 -0 -0 -0 -36 -87 -308 -283 -224 -195
-0 -0 -0 -0 -0 -0 -0 -0 -0 -0 -0 -0 -0 -0 -0 -0 -0 -0 -0 -0 -0 -0 -0 -0 -0 -0 -0 -0 -0 -0 -0 -0 -0 -0 -0 -0 -0 -0 -0 -0 -0 -0 -0 -447 -0
-0 -0 -0 -0 -0 -0 -0 -0 -0 -0 -0 -0 -0 -0 -0 -0 -0 -0 -0 -0 -0 -0 -0 -0 -0 -0 -0 -0 -0 -0 -0 -0 -0 -0 -0 -0 -0 -0 -0 -0 -0 -0 -0 -0 -0
-0 -0 -0 -0 -0 -0 -0 -0 -0 -0 -0 -0 -0 -0 -0 -0 -0 -0 -0 -0 -0 -0 -0 -0 -0 -0 -0 -0 -0 -0 -0 -0 -0 -0 -0 -0 -0 -44 -0 -0 -0 -0 -0 -0 -0
-0 -0 -0 -0 -0 -0 -0 -0 -0 -0 -0 -0 -0 -0 -0 -0 -0 -0 -0 -0 -0 -0 -0 -0 -0 -0 -0 -0 -0 -0 -0 -0 -0 -0 -0 -0 -1 -62 -0 -0 -0 -0 -0 -0 -0
-0 -0 -0 -0 -0 -0 -0 -0 -0 -0 -2 -0 -0 -0 -0 -0 -0 -0 -0 -0 -0 -0 -0 -0 -0 -0 -0 -0 -0 -0 -0 -0 -0 -0 -0 -0 -0 -37 -0 -0 -0 -0 -0 -0 -0
-0 -0 -0 -0 -0 -0 -0 -0 -0 -21 -1 -0 -0 -0 -0 -0 -0 -0 -0 -0 -0 -0 -0 -0 -0 -0 -0 -0 -0 -0 -0 -0 -0 -0 -0 -0 -0 -8 -0 -0 -0 -0 -0 -0 -0
-0 -0 -0 -0 -0 -0 -0 -0 -14 -3 -0 -0 -0 -0 -0 -0 -0 -0 -0 -0 -0 -0 -0 -0 -0 -0 -0 -0 -0 -0 -0 -0 -0 -0 -1 -0 -0 -1 -0 -0 -0 -0 -0 -0 -0
-0 -0 -0 -0 -0 -0 -0 -75 -8 -0 -0 -0 -0 -0 -0 -0 -0 -0 -0 -0 -0 -0 -0 -0 -0 -0 -0 -0 -0 -0 -0 -0 -0 -0 -0 -0 -0 -0 -0 -0 -0 -0 -0 -0 -0
-0 -0 -0 -0 -0 -0 -0 -0 -4 -1 -0 -0 -0 -0 -0 -0 -0 -0 -0 -0 -0 -0 -0 -0 -0 -0 -0 -0 -0 -0 -0 -0 -0 -0 -0 -0 -0 -0 -0 -0 -0 -0 -0 -0 -0
-0 -0 -0 -0 -0 -0 -0 -0 -0 -0 -0 -0 -0 -0 -0 -0 -0 -0 -0 -0 -0 -0 -0 -0 -0 -0 -0 -0 -0 -0 -0 -0 -0 -0 -0 -0 -0 -0 -0 -0 -0 -0 -0 -0 -0
-0 -0 -0 -0 -0 -0 -0 -0 -0 -0 -0 -0 -0 -0 -0 -0 -0 -0 -0 -0 -0 -0 -0 -0 -0 -0 -0 -0 -0 -0 -0 -0 -0 -0 -0 -0 -0 -0 -0 -0 -0 -0 -0 -0 -0
-0 -0 -0 -0 -0 -0 -0 -0 -0 -0 -0 -0 -0 -0 -0 -0 -0 -0 -0 -0 -0 -0 -0 -0 -0 -0 -0 -0 -0 -0 -0 -0 -0 -0 -0 -0 -0 -0 -0 -0 -0 -0 -0 -0 -0
-0 -0 -0 -0 -0 -0 -0 -0 -0 -0 -0 -0 -0 -0 -0 -0 -0 -0 -0 -0 -0 -0 -0 -0 -0 -0 -0 -0 -0 -0 -0 -0 -0 -0 -0 -0 -0 -0 -0 -0 -0 -0 -0 -0 -0
-0 -0 -0 -0 -0 -0 -0 -0 -0 -0 -0 -0 -0 -0 -0 -0 -0 -0 -0 -0 -0 -0 -0 -0 -0 -0 -0 -0 -0 -0 -0 -0 -0 -0 -0 -0 -0 -0 -0 -0 -0 -0 -0 -0 -0
-0 -0 -0 -0 -0 -0 -0 -0 -0 -0 -0 -0 -0 -0 -0 -0 -0 -0 -0 -0 -0 -0 -0 -0 -0 -0 -0 -0 -0 -0 -0 -0 -0 -0 -0 -0 -0 -0 -0 -0 -0 -0 -0 -0 -0
-0 -0 -0 -0 -0 -0 -0 -0 -0 -0 -0 -0 -0 -0 -0 -0 -0 -0 -0 -0 -0 -0 -0 -0 -0 -0 -0 -0 -0 -0 -0 -0 -0 -0 -0 -0 -0 -0 -0 -0 -0 -0 -0 -0 -0
-0 -0 -0 -0 -0 -0 -0 -0 -0 -0 -0 -0 -0 -0 -0 -0 -0 -0 -0 -0 -0 -0 -0 -0 -0 -1 -0 -0 -0 -0 -0 -0 -0 -0 -0 -0 -0 -3 -0 -0 -0 -0 -0 -0 -0
Wind_Speed
33 33 32 30 28 26 27 29 28 27 28 28 28 27 27 27 26 17 19 15 13 7 7 6 3 2 1 3 10 14 19 22 20 19 21 17 14 10 18 4 5 7 23 18 10
33 32 30 29 28 26 28 28 27 27 27 27 27 27 26 26 24 15 13 10 11 7 7 7 4 5 2 2 7 5 17 26 23 24 19 18 17 15 16 8 6 24 5 16 6
32 31 30 29 28 28 29 28 28 27 27 26 26 26 25 24 18 15 13 9 7 8 6 5 5 5 3 3 5 9 25 21 21 23 25 25 22 22 18 20 19 32 26 2 3
30 28 28 28 28 28 28 27 27 27 26 24 24 24 24 17 18 14 13 9 9 6 6 6 2 3 6 8 7 19 20 28 25 24 21 22 24 26 25 32 36 34 29 12 5
29 28 27 26 27 28 27 26 25 24 23 22 23 23 20 16 15 14 11 10 9 8 5 3 3 7 12 9 10 15 22 18 18 20 20 23 23 26 29 29 32 34 27 27 15
28 27 25 25 25 26 25 24 23 23 22 22 22 21 17 14 12 11 10 10 9 8 6 9 10 10 15 14 8 14 18 17 18 16 17 17 21 20 17 27 27 22 21 22 20
29 27 26 27 26 26 26 26 25 23 21 18 17 16 14 16 11 9 10 9 9 10 9 8 11 8 12 13 15 17 19 18 19 19 15 15 18 17 26 25 20 19 17 17 16
28 27 26 26 25 25 25 25 26 23 18 14 11 12 15 13 11 9 8 9 9 10 12 12 10 14 14 14 14 16 17 17 14 15 14 11 14 21 22 20 19 18 17 16 16
28 27 26 25 24 23 24 24 24 16 12 10 11 11 11 12 11 9 8 10 8 9 10 11 10 14 12 13 13 13 16 17 16 15 14 13 18 22 21 19 19 18 18 16 14
27 26 25 24 23 22 22 19 15 12 10 10 12 11 10 12 11 10 11 11 10 10 10 10 11 11 11 11 16 16 16 15 16 17 17 15 19 20 19 17 18 18 18 18 18
26 25 24 23 22 20 17 14 14 12 10 13 11 14 10 12 10 8 11 9 9 9 10 9 13 13 14 15 16 17 17 17 16 17 16 15 16 17 16 16 17 18 19 19 20
25 23 21 20 20 17 14 14 15 16 12 10 10 11 12 9 9 8 10 7 8 8 9 10 12 14 15 16 18 20 22 18 18 17 19 15 15 14 15 15 17 18 19 21 22
24 23 22 20 18 12 7 14 15 15 10 10 10 11 10 9 9 8 7 8 11 9 7 17 12 14 17 17 21 21 25 23 24 20 19 17 17 14 14 14 16 18 19 21 23
24 20 18 15 14 13 11 12 17 15 9 9 10 12 10 9 11 12 9 9 11 10 9 13 13 15 17 19 24 30 18 23 25 22 25 14 25 15 14 15 17 19 21 22 24
24 21 16 11 18 12 12 18 12 11 9 10 10 11 11 10 10 12 12 8 9 8 12 14 14 17 20 23 23 22 24 23 22 23 24 19 25 16 15 18 20 20 21 23 24
25 23 20 10 10 13 10 14 12 7 12 10 10 10 9 11 11 11 10 13 13 12 14 12 14 18 20 17 18 21 20 18 17 16 22 17 22 18 19 19 20 20 22 24 25
26 24 10 14 13 14 9 9 7 7 10 9 10 10 10 11 11 11 10 9 12 12 11 13 16 17 19 18 15 21 18 19 17 16 21 14 20 20 15 16 18 21 23 25 26
28 14 8 9 15 16 10 7 6 12 9 11 10 11 12 12 13 13 13 13 16 16 19 20 19 14 16 19 21 20 21 24 25 24 21 18 23 19 14 15 18 21 24 26 27
24 14 11 11 9 10 9 7 9 11 10 9 11 13 13 13 16 12 14 16 15 14 17 18 17 14 15 17 17 17 19 20 23 21 25 19 19 16 12 15 18 22 24 26 27
20 14 12 14 8 8 12 14 15 12 11 10 15 14 17 13 14 13 12 12 11 13 15 15 18 14 15 15 16 19 17 19 17 24 26 19 20 22 13 15 18 22 24 25 25
17 13 16 10 11 11 13 16 16 13 12 14 17 16 17 15 15 15 16 13 11 12 15 16 17 15 16 14 20 17 16 18 22 22 27 28 22 17 16 15 18 20 21 22 23
19 14 17 11 11 15 18 17 17 15 13 15 16 16 14 14 16 16 17 15 9 11 15 15 18 19 18 18 18 18 20 18 22 21 22 27 27 15 14 15 16 19 19 20 22
23 19 16 14 15 15 16 18 18 16 14 14 14 14 14 15 18 15 15 13 10 11 15 13 16 20 18 17 14 16 16 17 19 22 24 26 21 10 15 17 17 18 19 21 21
23 19 17 15 17 20 22 20 18 16 15 13 14 12 14 16 15 17 15 13 12 12 15 15 18 20 26 28 22 19 17 15 15 23 24 19 22 15 16 18 18 18 19 20 19
26 21 20 20 16 24 21 20 20 16 14 12 14 13 14 18 15 16 15 13 14 13 14 16 22 22 23 25 22 21 19 15 16 17 22 22 23 19 23 21 21 19 18 18 19
25 24 22 22 21 22 18 18 20 17 17 14 14 15 13 15 13 18 14 13 15 10 11 15 23 24 26 25 21 20 17 18 15 16 18 19 22 23 25 20 19 16 16 17 18
25 20 21 20 20 19 18 19 17 21 17 18 20 20 15 13 16 15 14 15 15 15 14 15 20 19 26 25 22 18 17 16 16 14 15 17 19 18 18 18 17 15 15 16 16
Wind_Direction
312 308 310 314 321 326 323 305 310 325 323 322 324 326 325 326 327 343 330 334 341 13 4 101 121 7 41 305 296 284 282 281 282 289 292 297 299 316 306 344 127 145 227 328 18
310 311 311 314 317 320 313 305 316 319 320 321 323 325 330 331 331 341 351 356 352 55 59 101 121 129 123 321 304 267 280 274 282 287 299 300 299 304 307 321 301 220 330 335 24
316 315 313 310 313 308 303 303 306 313 316 322 325 326 331 334 336 348 355 13 31 92 22 16 74 114 323 330 292 290 274 289 290 291 285 289 294 290 304 297 306 271 273 90 42
322 322 315 310 307 305 304 305 310 315 320 329 331 333 330 341 322 344 354 28 59 86 349 353 48 320 307 308 300 287 290 278 287 290 291 290 289 285 290 277 266 263 279 313 329
324 321 320 317 308 303 305 309 316 323 328 332 332 328 331 332 329 349 27 52 50 52 59 36 334 305 296 301 311 296 289 298 295 292 292 287 291 287 284 291 283 256 281 279 302
328 329 328 322 316 309 310 314 319 323 322 323 326 330 330 329 359 15 40 59 37 46 356 321 312 308 298 303 302 316 300 304 304 302 299 300 298 303 317 300 297 295 295 290 292
323 323 318 299 290 293 296 297 304 311 320 332 339 342 331 331 360 39 60 32 29 356 347 344 317 333 325 312 307 305 302 305 302 299 302 305 302 309 304 307 313 310 310 304 304
317 315 305 298 301 304 296 297 290 306 330 342 4 359 328 4 21 45 64 14 19 348 331 334 338 314 315 323 320 308 307 305 324 316 309 305 302 313 316 319 322 319 316 309 310
321 318 315 310 314 311 304 300 300 331 352 16 2 340 338 21 17 80 79 355 31 7 355 357 350 322 332 317 317 316 309 306 314 325 322 302 297 318 321 320 319 324 324 320 317
313 310 308 311 311 307 304 329 353 15 9 11 333 340 352 358 22 46 89 70 20 34 17 354 346 344 340 325 306 316 315 317 312 321 315 304 308 319 324 326 325 325 325 322 315
310 305 303 304 302 317 337 359 353 0 4 323 338 324 355 352 31 46 81 75 44 7 343 350 326 329 336 333 326 326 322 317 323 328 323 320 319 323 327 328 330 331 330 329 322
306 299 291 285 283 325 350 340 338 318 345 359 345 338 341 360 35 44 83 41 9 354 8 352 333 341 340 335 324 319 313 316 319 325 316 318 321 333 332 330 331 332 332 330 327
296 294 291 279 265 62 115 318 331 320 347 14 2 349 353 23 354 10 67 8 340 340 350 323 346 340 330 329 319 317 308 310 309 317 312 307 306 311 332 339 339 337 336 336 331
289 277 266 236 26 10 40 34 223 149 39 15 15 353 19 358 348 341 344 358 354 341 348 336 347 338 332 327 322 307 323 312 307 306 303 306 297 300 315 324 333 336 335 332 328
284 265 240 127 232 102 9 260 300 55 0 14 356 350 359 351 2 350 338 13 352 355 339 333 338 333 326 324 327 319 320 317 313 304 299 298 297 303 307 309 317 325 329 330 331
285 268 257 68 99 150 90 300 80 12 333 5 3 352 13 349 349 353 349 337 340 342 333 336 342 336 333 339 340 332 332 331 326 314 301 299 302 302 305 308 313 321 324 326 327
287 264 5 339 347 345 29 51 2 339 5 359 356 1 351 345 346 336 341 343 328 327 324 334 329 335 335 332 339 331 329 321 318 314 311 324 310 311 324 325 323 322 322 324 326
297 357 11 350 321 318 8 4 339 333 342 355 360 353 337 336 331 328 325 322 320 317 313 314 317 335 339 331 323 327 325 315 309 308 317 320 308 316 325 330 328 326 325 325 324
338 358 350 341 349 346 347 331 327 328 343 345 342 326 329 329 321 328 323 320 327 329 318 321 319 338 337 338 335 333 324 328 316 315 309 311 318 324 325 323 326 326 326 327 329
347 348 343 327 353 345 319 309 319 328 335 336 320 325 320 326 324 327 327 339 338 336 333 331 321 331 336 336 335 325 333 323 322 311 308 313 310 315 316 316 321 323 324 327 331
359 346 336 336 326 318 307 309 313 318 320 319 315 316 317 318 316 318 323 335 334 337 335 331 325 329 331 326 321 329 323 322 317 314 309 307 312 325 325 322 321 325 330 331 333
351 342 340 340 313 307 303 309 314 316 316 313 314 314 317 321 319 315 315 323 337 335 329 332 325 319 322 328 328 324 319 320 314 317 312 308 307 332 330 327 325 324 330 335 337
345 340 346 334 308 305 310 308 312 313 310 312 310 316 322 319 315 315 320 327 327 325 326 331 325 319 322 329 327 321 323 320 319 317 307 306 316 337 327 321 320 321 326 332 336
353 345 347 337 326 311 308 307 309 314 312 310 314 318 319 315 316 317 316 323 320 315 320 325 316 312 308 314 319 317 316 315 314 311 312 307 305 323 319 312 314 316 321 329 339
357 352 345 325 326 312 314 312 310 313 314 315 311 305 311 314 313 313 315 318 317 317 315 313 309 310 308 311 312 310 312 308 304 308 308 313 311 311 316 311 312 315 318 327 333
360 355 348 332 326 317 318 316 311 315 314 314 305 312 308 309 310 319 317 315 315 317 309 312 307 310 306 308 307 303 307 304 301 304 305 307 308 308 308 313 317 321 323 326 330
5 11 356 347 340 332 327 322 322 317 318 312 311 310 309 307 311 317 321 321 319 316 311 309 314 308 308 311 309 299 303 295 299 300 307 306 315 318 317 317 320 322 326 328 331